User: anonymous   Login
Location: Eaton Estates
(41.3089°N, 82.0057°W)
Time: 08:42:31
(UTC+00:00)
Language:

CAS-6 - Orbit

View from above orbital plane
View from above orbital plane
View from above satellite
View from above satellite

Ground track
Ground track

The orbit data is extracted from the following two-line orbital elements,

1 44881U 19093C   23090.87709637  .00001876  00000-0  24084-3 0  9991
2 44881  97.8642 170.6447 0014337 335.4124  24.6379 14.82328009177342
Epoch (UTC): 31 March 2023 21:03:01
Eccentricity: 0.0014337
inclination: 97.8642°
perigee height: 612 km
apogee height: 632 km
right ascension of ascending node: 170.6447°
argument of perigee: 335.4124°
revolutions per day: 14.82328009
mean anomaly at epoch: 24.6379°
orbit number at epoch: 17734

The dashed part of the orbit path shows where the satellite is in the earth's shadow,  

DLR